Volver al catálogo

DELTA 1 DEB

ActivoSSO
NORAD 7064·DEBRIS·🇺🇸 United States

Lanzado Nov 6, 1973 desde Vandenberg Space Force Base

Loading…

Próximos Pases (próximas 24 horas)

TLE

ActualizadoSource: Space-Track

Época: Sep 14, 2026, 01:24 UTC

1 07064U 73086BG  26257.05855729 -.00000003  00000-0  19352-3 0  9991
2 07064 101.6563 118.0206 0181622 173.6469 350.7874 12.75488599457485

Sigue DELTA 1 DEB en tiempo real con AllMySat

Download on the App Store